Location: Carrières
(48.9495°N, 2.0407°E)
Time: 20:51:16
(UTC+00:00)

Courier 1B Rocket - Pass Details

Date: 22 April 2024
Orbit: 920 x 1201 km, 28.2° (Epoch: 25 May)

Event Time Altitude Azimuth Distance (km) Brightness Sun altitude
Rises 05:23:07 0° 234° (SW) 4,000 7.6 4.9°
Reaches altitude 10° 05:27:46 10° 210° (SSW) 2,981 7.2 5.7°
Maximum altitude 05:30:55 13° 184° (S) 2,698 7.2 6.2°
Drops below altitude 10° 05:34:00 10° 158° (SSE) 2,889 7.7 6.7°
Sets 05:38:21 0° 132° (SE) 3,774 8.7 7.4°
